This is the latest recevied weather packets stored in our database for station/object EA6MW-10. If no packets are shown the sender has not sent any weather packets the latest 10 day(s).
| Time | Temp. | Humidity | Pressure | Rain* | Wind** | Luminosity | Snow |
|---|---|---|---|---|---|---|---|
| 1777608434 | 16.11° C | 91% | 1019.4 hPa | - | - | - | - |
| 1777607534 | 15.56° C | 91% | 1019.3 hPa | - | - | - | - |
| 1777606633 | 15.56° C | 93% | 1019.1 hPa | - | - | - | - |
| 1777605733 | 15.56° C | 93% | 1019.2 hPa | - | - | - | - |
| 1777604833 | 15° C | 93% | 1019.2 hPa | - | - | - | - |
| 1777603932 | 15° C | 93% | 1019.3 hPa | - | - | - | - |
| 1777603032 | 15° C | 94% | 1019.3 hPa | - | - | - | - |
| 1777602131 | 14.44° C | 95% | 1019.3 hPa | - | - | - | - |
| 1777601231 | 13.89° C | 96% | 1019.1 hPa | - | - | - | - |
| 1777600331 | 13.89° C | 96% | 1019.1 hPa | - | - | - | - |
| 1777599431 | 13.89° C | 96% | 1019.1 hPa | - | - | - | - |
| 1777598530 | 13.89° C | 95% | 1019.1 hPa | - | - | - | - |
| 1777597630 | 14.44° C | 95% | 1019.1 hPa | - | - | - | - |
| 1777596730 | 14.44° C | 95% | 1019 hPa | - | - | - | - |
| 1777595830 | 15° C | 94% | 1019 hPa | - | - | - | - |
| 1777594929 | 15° C | 96% | 1019 hPa | - | - | - | - |
| 1777594029 | 15° C | 95% | 1018.8 hPa | - | - | - | - |
| 1777593129 | 15.56° C | 91% | 1018.6 hPa | - | - | - | - |
| 1777592229 | 15° C | 94% | 1018.7 hPa | - | - | - | - |
| 1777591328 | 15° C | 96% | 1018.6 hPa | - | - | - | - |
| 1777590428 | 14.44° C | 95% | 1018.6 hPa | - | - | - | - |
| 1777589528 | 15° C | 96% | 1018.6 hPa | - | - | - | - |
| 1777588627 | 14.44° C | 96% | 1018.6 hPa | - | - | - | - |
| 1777587727 | 15° C | 96% | 1018.5 hPa | - | - | - | - |
| 1777586827 | 15° C | 95% | 1018.3 hPa | - | - | - | - |
* Rain since midnight (hover to see other rain measurements)
** Current wind speed in m/s (hover to see current wind gust speed)